TimeCST,TemperatureF,Dew PointF,Humidity,Sea Level PressureIn,VisibilityMPH,Wind Direction,Wind SpeedMPH,Gust SpeedMPH,PrecipitationIn,Events,Conditions,WindDirDegrees,DateUTC
12:52 AM,35.1,30.0,82,30.45,7.0,SSE,9.2,-,N/A,,Clear,160,2012-11-17 06:52:00
1:52 AM,36.0,28.9,76,30.46,8.0,South,6.9,-,N/A,,Clear,170,2012-11-17 07:52:00
2:52 AM,35.1,28.9,78,30.47,8.0,SSE,6.9,-,N/A,,Clear,160,2012-11-17 08:52:00
3:52 AM,30.9,27.0,85,30.48,7.0,SSE,6.9,-,N/A,,Clear,160,2012-11-17 09:52:00
4:52 AM,32.0,27.0,82,30.49,7.0,SSE,5.8,-,N/A,,Clear,160,2012-11-17 10:52:00
5:52 AM,30.9,27.0,85,30.49,7.0,SSE,6.9,-,N/A,,Clear,150,2012-11-17 11:52:00
6:52 AM,30.0,26.1,85,30.50,6.0,SSE,6.9,-,N/A,,Clear,150,2012-11-17 12:52:00
7:52 AM,35.1,30.0,82,30.51,4.0,SSE,8.1,-,N/A,,Haze,150,2012-11-17 13:52:00
8:52 AM,42.1,32.0,67,30.51,5.0,South,6.9,-,N/A,,Haze,170,2012-11-17 14:52:00
9:52 AM,46.9,33.1,59,30.51,6.0,South,9.2,-,N/A,,Haze,180,2012-11-17 15:52:00
10:52 AM,51.1,30.9,46,30.50,8.0,South,11.5,-,N/A,,Clear,180,2012-11-17 16:52:00
11:52 AM,54.0,33.1,45,30.47,8.0,South,12.7,-,N/A,,Clear,180,2012-11-17 17:52:00
12:52 PM,55.9,33.1,42,30.45,8.0,South,9.2,-,N/A,,Clear,190,2012-11-17 18:52:00
1:52 PM,55.9,32.0,40,30.43,8.0,SSE,12.7,-,N/A,,Clear,160,2012-11-17 19:52:00
2:52 PM,55.0,30.0,38,30.43,10.0,SSE,12.7,-,N/A,,Clear,160,2012-11-17 20:52:00
3:52 PM,52.0,30.9,45,30.43,9.0,SE,9.2,-,N/A,,Clear,140,2012-11-17 21:52:00
4:52 PM,43.0,30.0,60,30.42,9.0,SE,8.1,-,N/A,,Clear,130,2012-11-17 22:52:00
5:52 PM,42.1,28.9,60,30.42,9.0,SE,8.1,-,N/A,,Clear,140,2012-11-17 23:52:00
6:52 PM,41.0,28.9,62,30.42,8.0,SE,9.2,-,N/A,,Clear,140,2012-11-18 00:52:00
7:52 PM,39.9,28.9,65,30.42,8.0,SE,9.2,-,N/A,,Clear,140,2012-11-18 01:52:00
8:52 PM,39.9,30.9,70,30.43,8.0,SE,9.2,-,N/A,,Clear,140,2012-11-18 02:52:00
9:52 PM,37.9,30.9,76,30.41,6.0,SE,10.4,-,N/A,,Haze,140,2012-11-18 03:52:00
10:52 PM,37.9,30.9,76,30.42,6.0,SE,9.2,-,N/A,,Haze,130,2012-11-18 04:52:00
11:52 PM,37.9,32.0,79,30.41,5.0,SSE,9.2,-,N/A,,Haze,150,2012-11-18 05:52:00